sat.trackr.live / text

‹ back to catalog

STARLINK-2160

NORAD 47746 · 2021-017AA

PAYLOAD ACTIVE UNKNOWN

§ Identity

Operator
Country
US
Launch date
2021-03-04
Launch site
AFETR
Launch vehicle
Mass (kg)
RCS (m²)

Purposes: comms

External: N2YO · Heavens-Above · Gunter

§ Orbital elements

Epoch: 2026-09-20T03:56:08.265120Z

Period
91.23 min
Inclination
53.1530°
Eccentricity
0.0006871
Mean motion
15.78363735 rev/d
Perigee alt
330.5 km
Apogee alt
339.7 km
Semi-major
6,713.2 km
B*
5.5054e-4
RAAN
350.8014°
Arg perigee
355.5786°
Mean anomaly
4.5173°
Rev number
30,802

§ Raw data

STARLINK-21601 47746U 21017AA  26263.16398455  .00097489  00000+0  55054-3 0  99972 47746  53.1530 350.8014 0006871 355.5786   4.5173 15.78363735308020

JSON: /api/v1/satellites/47746 · /tle

For live sub-satellite position, see the globe view (requires WebGL).

§ Visibility from observer

Set your observer location to see the next 7 days of passes ≥ 10°. The values pass through the URL so the page stays shareable.

No JS? Fill the form by hand. The geolocation button needs JavaScript.